Year,Month,Day,Hour,Minute,Value (Times are PST for temperature in C)
2017,06,20,00,00,12.40
2017,06,20,00,01,12.40
2017,06,20,00,02,12.40
2017,06,20,00,03,12.50
2017,06,20,00,04,12.50
2017,06,20,00,05,12.50
2017,06,20,00,06,12.40
2017,06,20,00,07,12.40
2017,06,20,00,08,12.30
2017,06,20,00,09,12.30
2017,06,20,00,10,12.30
2017,06,20,00,11,12.20
2017,06,20,00,12,12.20
2017,06,20,00,13,12.20
2017,06,20,00,14,12.20
2017,06,20,00,15,12.10
2017,06,20,00,16,12.10
2017,06,20,00,17,12.00
2017,06,20,00,18,12.00
2017,06,20,00,19,12.00
2017,06,20,00,20,12.00
2017,06,20,00,21,12.00
2017,06,20,00,22,12.00
2017,06,20,00,23,12.00
2017,06,20,00,24,12.00
2017,06,20,00,25,12.00
2017,06,20,00,26,12.00
2017,06,20,00,27,12.00
2017,06,20,00,28,12.00
2017,06,20,00,29,12.10
2017,06,20,00,30,12.10
2017,06,20,00,31,12.10
2017,06,20,00,32,12.10
2017,06,20,00,33,12.10
2017,06,20,00,34,12.10
2017,06,20,00,35,12.10
2017,06,20,00,36,12.10
2017,06,20,00,37,12.10
2017,06,20,00,38,12.10
2017,06,20,00,39,12.10
2017,06,20,00,40,12.10
2017,06,20,00,41,12.10
2017,06,20,00,42,12.10
2017,06,20,00,43,12.10
2017,06,20,00,44,12.10
2017,06,20,00,45,12.10
2017,06,20,00,46,12.10
2017,06,20,00,47,12.10
2017,06,20,00,48,12.10
2017,06,20,00,49,12.10
2017,06,20,00,50,12.10
2017,06,20,00,51,12.00
2017,06,20,00,52,12.00
2017,06,20,00,53,12.00
2017,06,20,00,54,12.00
2017,06,20,00,55,12.00
2017,06,20,00,56,12.00
2017,06,20,00,57,11.90
2017,06,20,00,58,11.90
2017,06,20,00,59,11.90
2017,06,20,01,00,11.90
2017,06,20,01,01,11.90
2017,06,20,01,02,11.90
2017,06,20,01,03,12.00
2017,06,20,01,04,12.00
2017,06,20,01,05,12.00
2017,06,20,01,06,12.00
2017,06,20,01,07,12.00
2017,06,20,01,08,12.00
2017,06,20,01,09,12.00
2017,06,20,01,10,12.00
2017,06,20,01,11,12.00
2017,06,20,01,12,12.00
2017,06,20,01,13,12.00
2017,06,20,01,14,12.00
2017,06,20,01,15,12.00
2017,06,20,01,16,12.00
2017,06,20,01,17,12.00
2017,06,20,01,18,12.00
2017,06,20,01,19,12.00
2017,06,20,01,20,11.90
2017,06,20,01,21,11.90
2017,06,20,01,22,11.90
2017,06,20,01,23,11.90
2017,06,20,01,24,11.90
2017,06,20,01,25,11.90
2017,06,20,01,26,11.90
2017,06,20,01,27,11.90
2017,06,20,01,28,11.90
2017,06,20,01,29,11.90
2017,06,20,01,30,11.90
2017,06,20,01,31,11.90
2017,06,20,01,32,11.90
2017,06,20,01,33,11.90
2017,06,20,01,34,11.90
2017,06,20,01,35,11.90
2017,06,20,01,36,11.90
2017,06,20,01,37,11.90
2017,06,20,01,38,11.90
2017,06,20,01,39,11.90
2017,06,20,01,40,11.90
2017,06,20,01,41,12.00
2017,06,20,01,42,12.00
2017,06,20,01,43,12.00
2017,06,20,01,44,12.00
2017,06,20,01,45,12.00
2017,06,20,01,46,12.10
2017,06,20,01,47,12.10
2017,06,20,01,48,12.10
2017,06,20,01,49,12.10
2017,06,20,01,50,12.10
2017,06,20,01,51,12.00
2017,06,20,01,52,12.10
2017,06,20,01,53,12.10
2017,06,20,01,54,12.10
2017,06,20,01,55,12.10
2017,06,20,01,56,12.00
2017,06,20,01,57,12.10
2017,06,20,01,58,12.10
2017,06,20,01,59,12.00
2017,06,20,02,00,12.00
2017,06,20,02,01,12.00
2017,06,20,02,02,12.10
2017,06,20,02,03,12.10
2017,06,20,02,04,12.10
2017,06,20,02,05,12.10
2017,06,20,02,06,12.10
2017,06,20,02,07,12.10
2017,06,20,02,08,12.10
2017,06,20,02,09,12.10
2017,06,20,02,10,12.10
2017,06,20,02,11,12.10
2017,06,20,02,12,12.10
2017,06,20,02,13,12.10
2017,06,20,02,14,12.10
2017,06,20,02,15,12.10
2017,06,20,02,16,12.20
2017,06,20,02,17,12.20
2017,06,20,02,18,12.20
2017,06,20,02,19,12.20
2017,06,20,02,20,12.20
2017,06,20,02,21,12.20
2017,06,20,02,22,12.20
2017,06,20,02,23,12.20
2017,06,20,02,24,12.20
2017,06,20,02,25,12.20
2017,06,20,02,26,12.20
2017,06,20,02,27,12.20
2017,06,20,02,28,12.20
2017,06,20,02,29,12.20
2017,06,20,02,30,12.20
2017,06,20,02,31,12.30
2017,06,20,02,32,12.20
2017,06,20,02,33,12.30
2017,06,20,02,34,12.20
2017,06,20,02,35,12.20
2017,06,20,02,36,12.20
2017,06,20,02,37,12.20
2017,06,20,02,38,12.20
2017,06,20,02,39,12.20
2017,06,20,02,40,12.20
2017,06,20,02,41,12.20
2017,06,20,02,42,12.20
2017,06,20,02,43,12.20
2017,06,20,02,44,12.20
2017,06,20,02,45,12.20
2017,06,20,02,46,12.20
2017,06,20,02,47,12.20
2017,06,20,02,48,12.20
2017,06,20,02,49,12.20
2017,06,20,02,50,12.20
2017,06,20,02,51,12.10
2017,06,20,02,52,12.10
2017,06,20,02,53,12.10
2017,06,20,02,54,12.10
2017,06,20,02,55,12.10
2017,06,20,02,56,12.10
2017,06,20,02,57,12.10
2017,06,20,02,58,12.10
2017,06,20,02,59,12.10
2017,06,20,03,00,12.10
2017,06,20,03,01,12.10
2017,06,20,03,02,12.10
2017,06,20,03,03,12.10
2017,06,20,03,04,12.10
2017,06,20,03,05,12.10
2017,06,20,03,06,12.10
2017,06,20,03,07,12.10
2017,06,20,03,08,12.10
2017,06,20,03,09,12.10
2017,06,20,03,10,12.10
2017,06,20,03,11,12.10
2017,06,20,03,12,12.10
2017,06,20,03,13,12.10
2017,06,20,03,14,12.10
2017,06,20,03,15,12.10
2017,06,20,03,16,12.10
2017,06,20,03,17,12.10
2017,06,20,03,18,12.10
2017,06,20,03,19,12.20
2017,06,20,03,20,12.20
2017,06,20,03,21,12.20
2017,06,20,03,22,12.20
2017,06,20,03,23,12.20
2017,06,20,03,24,12.20
2017,06,20,03,25,12.20
2017,06,20,03,26,12.20
2017,06,20,03,27,12.20
2017,06,20,03,28,12.20
2017,06,20,03,29,12.20
2017,06,20,03,30,12.20
2017,06,20,03,31,12.20
2017,06,20,03,32,12.20
2017,06,20,03,33,12.20
2017,06,20,03,34,12.20
2017,06,20,03,35,12.20
2017,06,20,03,36,12.20
2017,06,20,03,37,12.20
2017,06,20,03,38,12.20
2017,06,20,03,39,12.20
2017,06,20,03,40,12.20
2017,06,20,03,41,12.10
2017,06,20,03,42,12.10
2017,06,20,03,43,12.10
2017,06,20,03,44,12.10
2017,06,20,03,45,12.10
2017,06,20,03,46,12.10
2017,06,20,03,47,12.10
2017,06,20,03,48,12.10
2017,06,20,03,49,12.10
2017,06,20,03,50,12.10
2017,06,20,03,51,12.10
2017,06,20,03,52,12.10
2017,06,20,03,53,12.10
2017,06,20,03,54,12.00
2017,06,20,03,55,12.00
2017,06,20,03,56,12.00
2017,06,20,03,57,12.00
2017,06,20,03,58,12.00
2017,06,20,03,59,12.00
2017,06,20,04,00,12.00
2017,06,20,04,01,12.00
2017,06,20,04,02,12.00
2017,06,20,04,03,12.00
2017,06,20,04,04,12.00
2017,06,20,04,05,11.90
2017,06,20,04,06,11.90
2017,06,20,04,07,11.90
2017,06,20,04,08,11.90
2017,06,20,04,09,11.90
2017,06,20,04,10,11.90
2017,06,20,04,11,11.90
2017,06,20,04,12,11.90
2017,06,20,04,13,11.90
2017,06,20,04,14,11.90
2017,06,20,04,15,11.90
2017,06,20,04,16,11.90
2017,06,20,04,17,11.90
2017,06,20,04,18,11.90
2017,06,20,04,19,11.90
2017,06,20,04,20,11.90
2017,06,20,04,21,11.90
2017,06,20,04,22,11.90
2017,06,20,04,23,11.90
2017,06,20,04,24,11.90
2017,06,20,04,25,11.90
2017,06,20,04,26,11.90
2017,06,20,04,27,11.90
2017,06,20,04,28,11.90
2017,06,20,04,29,11.90
2017,06,20,04,30,11.90
2017,06,20,04,31,11.90
2017,06,20,04,32,11.90
2017,06,20,04,33,11.90
2017,06,20,04,34,11.90
2017,06,20,04,35,11.90
2017,06,20,04,36,11.90
2017,06,20,04,37,11.90
2017,06,20,04,38,11.90
2017,06,20,04,39,11.90
2017,06,20,04,40,11.90
2017,06,20,04,41,11.90
2017,06,20,04,42,11.90
2017,06,20,04,43,11.90
2017,06,20,04,44,11.90
2017,06,20,04,45,11.90
2017,06,20,04,46,11.90
2017,06,20,04,47,11.90
2017,06,20,04,48,11.90
2017,06,20,04,49,11.90
2017,06,20,04,50,11.90
2017,06,20,04,51,11.90
2017,06,20,04,52,11.90
2017,06,20,04,53,11.90
2017,06,20,04,54,11.90
2017,06,20,04,55,11.90
2017,06,20,04,56,11.90
2017,06,20,04,57,11.90
2017,06,20,04,58,11.90
2017,06,20,04,59,11.90
2017,06,20,05,00,11.90
2017,06,20,05,01,11.90
2017,06,20,05,02,11.90
2017,06,20,05,03,11.90
2017,06,20,05,04,11.90
2017,06,20,05,05,11.90
2017,06,20,05,06,11.90
2017,06,20,05,07,11.90
2017,06,20,05,08,11.90
2017,06,20,05,09,11.90
2017,06,20,05,10,11.90
2017,06,20,05,11,11.90
2017,06,20,05,12,11.90
2017,06,20,05,13,11.90
2017,06,20,05,14,11.90
2017,06,20,05,15,11.80
2017,06,20,05,16,11.80
2017,06,20,05,17,11.80
2017,06,20,05,18,11.80
2017,06,20,05,19,11.80
2017,06,20,05,20,11.80
2017,06,20,05,21,11.80
2017,06,20,05,22,11.80
2017,06,20,05,23,11.80
2017,06,20,05,24,11.80
2017,06,20,05,25,11.80
2017,06,20,05,26,11.70
2017,06,20,05,27,11.70
2017,06,20,05,28,11.70
2017,06,20,05,29,11.70
2017,06,20,05,30,11.70
2017,06,20,05,31,11.80
2017,06,20,05,32,11.80
2017,06,20,05,33,11.80
2017,06,20,05,34,11.80
2017,06,20,05,35,11.80
2017,06,20,05,36,11.80
2017,06,20,05,37,11.80
2017,06,20,05,38,11.80
2017,06,20,05,39,11.80
2017,06,20,05,40,11.80
2017,06,20,05,41,11.80
2017,06,20,05,42,11.80
2017,06,20,05,43,11.80
2017,06,20,05,44,11.80
2017,06,20,05,45,11.80
2017,06,20,05,46,11.80
2017,06,20,05,47,11.80
2017,06,20,05,48,11.80
2017,06,20,05,49,11.80
2017,06,20,05,50,11.80
2017,06,20,05,51,11.80
2017,06,20,05,52,11.80
2017,06,20,05,53,11.80
2017,06,20,05,54,11.80
2017,06,20,05,55,11.80
2017,06,20,05,56,11.80
2017,06,20,05,57,11.80
2017,06,20,05,58,11.80
2017,06,20,05,59,11.80
2017,06,20,06,00,11.80
2017,06,20,06,01,11.80
2017,06,20,06,02,11.80
2017,06,20,06,03,11.80
2017,06,20,06,04,11.80
2017,06,20,06,05,11.90
2017,06,20,06,06,11.90
2017,06,20,06,07,11.90
2017,06,20,06,08,11.90
2017,06,20,06,09,12.00
2017,06,20,06,10,12.00
2017,06,20,06,11,12.00
2017,06,20,06,12,12.10
2017,06,20,06,13,12.10
2017,06,20,06,14,12.10
2017,06,20,06,15,12.10
2017,06,20,06,16,12.10
2017,06,20,06,17,12.20
2017,06,20,06,18,12.20
2017,06,20,06,19,12.20
2017,06,20,06,20,12.30
2017,06,20,06,21,12.30
2017,06,20,06,22,12.30
2017,06,20,06,23,12.30
2017,06,20,06,24,12.30
2017,06,20,06,25,12.30
2017,06,20,06,26,12.30
2017,06,20,06,27,12.30
2017,06,20,06,28,12.30
2017,06,20,06,29,12.30
2017,06,20,06,30,12.30
2017,06,20,06,31,12.30
2017,06,20,06,32,12.30
2017,06,20,06,33,12.30
2017,06,20,06,34,12.30
2017,06,20,06,35,12.20
2017,06,20,06,36,12.20
2017,06,20,06,37,12.20
2017,06,20,06,38,12.20
2017,06,20,06,39,12.20
2017,06,20,06,40,12.30
2017,06,20,06,41,12.30
2017,06,20,06,42,12.30
2017,06,20,06,43,12.30
2017,06,20,06,44,12.30
2017,06,20,06,45,12.30
2017,06,20,06,46,12.30
2017,06,20,06,47,12.30
2017,06,20,06,48,12.40
2017,06,20,06,49,12.40
2017,06,20,06,50,12.40
2017,06,20,06,51,12.40
2017,06,20,06,52,12.40
2017,06,20,06,53,12.40
2017,06,20,06,54,12.40
2017,06,20,06,55,12.40
2017,06,20,06,56,12.40
2017,06,20,06,57,12.40
2017,06,20,06,58,12.40
2017,06,20,06,59,12.50
2017,06,20,07,00,12.50
2017,06,20,07,01,12.60
2017,06,20,07,02,12.60
2017,06,20,07,03,12.60
2017,06,20,07,04,12.70
2017,06,20,07,05,12.80
2017,06,20,07,06,13.00
2017,06,20,07,07,13.20
2017,06,20,07,08,13.40
2017,06,20,07,09,13.60
2017,06,20,07,10,13.80
2017,06,20,07,11,13.90
2017,06,20,07,12,14.10
2017,06,20,07,13,14.20
2017,06,20,07,14,14.30
2017,06,20,07,15,14.30
2017,06,20,07,16,14.40
2017,06,20,07,17,14.50
2017,06,20,07,18,14.60
2017,06,20,07,19,14.60
2017,06,20,07,20,14.70
2017,06,20,07,21,14.70
2017,06,20,07,22,14.80
2017,06,20,07,23,14.80
2017,06,20,07,24,14.80
2017,06,20,07,25,14.90
2017,06,20,07,26,14.90
2017,06,20,07,27,14.90
2017,06,20,07,28,14.90
2017,06,20,07,29,15.00
2017,06,20,07,30,15.00
2017,06,20,07,31,15.10
2017,06,20,07,32,15.10
2017,06,20,07,33,15.10
2017,06,20,07,34,15.20
2017,06,20,07,35,15.20
2017,06,20,07,36,15.30
2017,06,20,07,37,15.30
2017,06,20,07,38,15.30
2017,06,20,07,39,15.30
2017,06,20,07,40,15.30
2017,06,20,07,41,15.40
2017,06,20,07,42,15.40
2017,06,20,07,43,15.40
2017,06,20,07,44,15.40
2017,06,20,07,45,15.40
2017,06,20,07,46,15.40
2017,06,20,07,47,15.50
2017,06,20,07,48,15.50
2017,06,20,07,49,15.50
2017,06,20,07,50,15.50
2017,06,20,07,51,15.50
2017,06,20,07,52,15.60
2017,06,20,07,53,15.60
2017,06,20,07,54,15.60
2017,06,20,07,55,15.60
2017,06,20,07,56,15.60
2017,06,20,07,57,15.60
2017,06,20,07,58,15.70
2017,06,20,07,59,15.70
2017,06,20,08,00,15.70
2017,06,20,08,01,15.80
2017,06,20,08,02,15.80
2017,06,20,08,03,15.80
2017,06,20,08,04,15.70
2017,06,20,08,05,15.60
2017,06,20,08,06,15.50
2017,06,20,08,07,15.50
2017,06,20,08,08,15.40
2017,06,20,08,09,15.30
2017,06,20,08,10,15.30
2017,06,20,08,11,15.30
2017,06,20,08,12,15.20
2017,06,20,08,13,15.20
2017,06,20,08,14,15.20
2017,06,20,08,15,15.20
2017,06,20,08,16,15.30
2017,06,20,08,17,15.30
2017,06,20,08,18,15.30
2017,06,20,08,19,15.40
2017,06,20,08,20,15.40
2017,06,20,08,21,15.50
2017,06,20,08,22,15.70
2017,06,20,08,23,15.80
2017,06,20,08,24,16.00
2017,06,20,08,25,16.10
2017,06,20,08,26,16.30
2017,06,20,08,27,16.40
2017,06,20,08,28,16.50
2017,06,20,08,29,16.70
2017,06,20,08,30,16.80
2017,06,20,08,31,16.80
2017,06,20,08,32,16.80
2017,06,20,08,33,16.90
2017,06,20,08,34,16.90
2017,06,20,08,35,16.90
2017,06,20,08,36,16.90
2017,06,20,08,37,16.80
2017,06,20,08,38,16.80
2017,06,20,08,39,16.70
2017,06,20,08,40,16.70
2017,06,20,08,41,16.60
2017,06,20,08,42,16.60
2017,06,20,08,43,16.60
2017,06,20,08,44,16.50
2017,06,20,08,45,16.50
2017,06,20,08,46,16.40
2017,06,20,08,47,16.30
2017,06,20,08,48,16.30
2017,06,20,08,49,16.30
2017,06,20,08,50,16.20
2017,06,20,08,51,16.20
2017,06,20,08,52,16.20
2017,06,20,08,53,16.20
2017,06,20,08,54,16.20
2017,06,20,08,55,16.20
2017,06,20,08,56,16.20
2017,06,20,08,57,16.20
2017,06,20,08,58,16.20
2017,06,20,08,59,16.20
2017,06,20,09,00,16.20
2017,06,20,09,01,16.20
2017,06,20,09,02,16.20
2017,06,20,09,03,16.20
2017,06,20,09,04,16.20
2017,06,20,09,05,16.30
2017,06,20,09,06,16.30
2017,06,20,09,07,16.30
2017,06,20,09,08,16.30
2017,06,20,09,09,16.40
2017,06,20,09,10,16.50
2017,06,20,09,11,16.50
2017,06,20,09,12,16.60
2017,06,20,09,13,16.80
2017,06,20,09,14,16.90
2017,06,20,09,15,17.10
2017,06,20,09,16,17.20
2017,06,20,09,17,17.40
2017,06,20,09,18,17.50
2017,06,20,09,19,17.60
2017,06,20,09,20,17.70
2017,06,20,09,21,17.80
2017,06,20,09,22,18.00
2017,06,20,09,23,18.10
2017,06,20,09,24,18.30
2017,06,20,09,25,18.40
2017,06,20,09,26,18.60
2017,06,20,09,27,18.70
2017,06,20,09,28,18.80
2017,06,20,09,29,19.00
2017,06,20,09,30,19.10
2017,06,20,09,31,19.30
2017,06,20,09,32,19.40
2017,06,20,09,33,19.50
2017,06,20,09,34,19.60
2017,06,20,09,35,19.70
2017,06,20,09,36,19.70
2017,06,20,09,37,19.80
2017,06,20,09,38,19.80
2017,06,20,09,39,19.90
2017,06,20,09,40,19.90
2017,06,20,09,41,20.00
2017,06,20,09,42,20.00
2017,06,20,09,43,20.10
2017,06,20,09,44,20.10
2017,06,20,09,45,20.00
2017,06,20,09,46,20.00
2017,06,20,09,47,20.00
2017,06,20,09,48,19.90
2017,06,20,09,49,19.90
2017,06,20,09,50,19.80
2017,06,20,09,51,19.80
2017,06,20,09,52,19.70
2017,06,20,09,53,19.70
2017,06,20,09,54,19.70
2017,06,20,09,55,19.70
2017,06,20,09,56,19.70
2017,06,20,09,57,19.60
2017,06,20,09,58,19.40
2017,06,20,09,59,19.30
2017,06,20,10,00,19.20
2017,06,20,10,01,19.00
2017,06,20,10,02,18.80
2017,06,20,10,03,18.70
2017,06,20,10,04,18.60
2017,06,20,10,05,18.40
2017,06,20,10,06,18.40
2017,06,20,10,07,18.30
2017,06,20,10,08,18.30
2017,06,20,10,09,18.40
2017,06,20,10,10,18.50
2017,06,20,10,11,18.70
2017,06,20,10,12,18.90
2017,06,20,10,13,19.00
2017,06,20,10,14,19.10
2017,06,20,10,15,19.20
2017,06,20,10,16,19.30
2017,06,20,10,17,19.40
2017,06,20,10,18,19.50
2017,06,20,10,19,19.50
2017,06,20,10,20,19.50
2017,06,20,10,21,19.60
2017,06,20,10,22,19.60
2017,06,20,10,23,19.60
2017,06,20,10,24,19.60
2017,06,20,10,25,19.60
2017,06,20,10,26,19.70
2017,06,20,10,27,19.70
2017,06,20,10,28,19.80
2017,06,20,10,29,19.80
2017,06,20,10,30,19.80
2017,06,20,10,31,19.80
2017,06,20,10,32,19.80
2017,06,20,10,33,19.80
2017,06,20,10,34,19.80
2017,06,20,10,35,19.90
2017,06,20,10,36,19.90
2017,06,20,10,37,20.00
2017,06,20,10,38,20.00
2017,06,20,10,39,20.10
2017,06,20,10,40,20.10
2017,06,20,10,41,20.10
2017,06,20,10,42,20.10
2017,06,20,10,43,20.00
2017,06,20,10,44,20.00
2017,06,20,10,45,20.00
2017,06,20,10,46,20.00
2017,06,20,10,47,20.10
2017,06,20,10,48,20.10
2017,06,20,10,49,20.10
2017,06,20,10,50,20.10
2017,06,20,10,51,20.10
2017,06,20,10,52,20.10
2017,06,20,10,53,20.10
2017,06,20,10,54,20.20
2017,06,20,10,55,20.20
2017,06,20,10,56,20.20
2017,06,20,10,57,20.30
2017,06,20,10,58,20.30
2017,06,20,10,59,20.30
2017,06,20,11,00,20.40
2017,06,20,11,01,20.40
2017,06,20,11,02,20.40
2017,06,20,11,03,20.30
2017,06,20,11,04,20.40
2017,06,20,11,05,20.40
2017,06,20,11,06,20.40
2017,06,20,11,07,20.30
2017,06,20,11,08,20.20
2017,06,20,11,09,20.20
2017,06,20,11,10,20.10
2017,06,20,11,11,20.10
2017,06,20,11,12,20.10
2017,06,20,11,13,20.00
2017,06,20,11,14,20.00
2017,06,20,11,15,19.90
2017,06,20,11,16,19.90
2017,06,20,11,17,19.80
2017,06,20,11,18,19.70
2017,06,20,11,19,19.70
2017,06,20,11,20,19.60
2017,06,20,11,21,19.60
2017,06,20,11,22,19.50
2017,06,20,11,23,19.50
2017,06,20,11,24,19.40
2017,06,20,11,25,19.40
2017,06,20,11,26,19.40
2017,06,20,11,27,19.30
2017,06,20,11,28,19.20
2017,06,20,11,29,19.20
2017,06,20,11,30,19.10
2017,06,20,11,31,19.10
2017,06,20,11,32,19.00
2017,06,20,11,33,18.90
2017,06,20,11,34,18.90
2017,06,20,11,35,18.80
2017,06,20,11,36,18.70
2017,06,20,11,37,18.70
2017,06,20,11,38,18.60
2017,06,20,11,39,18.50
2017,06,20,11,40,18.50
2017,06,20,11,41,18.40
2017,06,20,11,42,18.40
2017,06,20,11,43,18.40
2017,06,20,11,44,18.40
2017,06,20,11,45,18.40
2017,06,20,11,46,18.40
2017,06,20,11,47,18.50
2017,06,20,11,48,18.50
2017,06,20,11,49,18.50
2017,06,20,11,50,18.50
2017,06,20,11,51,18.50
2017,06,20,11,52,18.60
2017,06,20,11,53,18.60
2017,06,20,11,54,18.60
2017,06,20,11,55,18.60
2017,06,20,11,56,18.60
2017,06,20,11,57,18.60
2017,06,20,11,58,18.60
2017,06,20,11,59,18.60
2017,06,20,12,00,18.60
2017,06,20,12,01,18.60
2017,06,20,12,02,18.60
2017,06,20,12,03,18.60
2017,06,20,12,04,18.60
2017,06,20,12,05,18.60
2017,06,20,12,06,18.60
2017,06,20,12,07,18.60
2017,06,20,12,08,18.60
2017,06,20,12,09,18.60
2017,06,20,12,10,18.60
2017,06,20,12,11,18.50
2017,06,20,12,12,18.50
2017,06,20,12,13,18.60
2017,06,20,12,14,18.60
2017,06,20,12,15,18.70
2017,06,20,12,16,18.70
2017,06,20,12,17,18.80
2017,06,20,12,18,18.80
2017,06,20,12,19,18.90
2017,06,20,12,20,18.90
2017,06,20,12,21,18.90
2017,06,20,12,22,18.90
2017,06,20,12,23,18.90
2017,06,20,12,24,18.90
2017,06,20,12,25,19.00
2017,06,20,12,26,19.00
2017,06,20,12,27,19.00
2017,06,20,12,28,19.00
2017,06,20,12,29,19.00
2017,06,20,12,30,18.90
2017,06,20,12,31,18.90
2017,06,20,12,32,18.80
2017,06,20,12,33,18.80
2017,06,20,12,34,18.80
2017,06,20,12,35,18.90
2017,06,20,12,36,18.90
2017,06,20,12,37,18.90
2017,06,20,12,38,18.90
2017,06,20,12,39,19.00
2017,06,20,12,40,19.10
2017,06,20,12,41,19.20
2017,06,20,12,42,19.30
2017,06,20,12,43,19.40
2017,06,20,12,44,19.40
2017,06,20,12,45,19.40
2017,06,20,12,46,19.40
2017,06,20,12,47,19.40
2017,06,20,12,48,19.40
2017,06,20,12,49,19.40
2017,06,20,12,50,19.50
2017,06,20,12,51,19.50
2017,06,20,12,52,19.50
2017,06,20,12,53,19.60
2017,06,20,12,54,19.50
2017,06,20,12,55,19.50
2017,06,20,12,56,19.40
2017,06,20,12,57,19.40
2017,06,20,12,58,19.40
2017,06,20,12,59,19.40
2017,06,20,13,00,19.30
2017,06,20,13,01,19.20
2017,06,20,13,02,19.00
2017,06,20,13,03,19.00
2017,06,20,13,04,19.00
2017,06,20,13,05,19.00
2017,06,20,13,06,19.00
2017,06,20,13,07,19.00
2017,06,20,13,08,19.10
2017,06,20,13,09,19.10
2017,06,20,13,10,19.10
2017,06,20,13,11,19.10
2017,06,20,13,12,19.00
2017,06,20,13,13,19.00
2017,06,20,13,14,18.90
2017,06,20,13,15,18.90
2017,06,20,13,16,18.90
2017,06,20,13,17,18.90
2017,06,20,13,18,18.90
2017,06,20,13,19,18.90
2017,06,20,13,20,18.80
2017,06,20,13,21,18.70
2017,06,20,13,22,18.60
2017,06,20,13,23,18.50
2017,06,20,13,24,18.40
2017,06,20,13,25,18.40
2017,06,20,13,26,18.30
2017,06,20,13,27,18.30
2017,06,20,13,28,18.40
2017,06,20,13,29,18.40
2017,06,20,13,30,18.50
2017,06,20,13,31,18.60
2017,06,20,13,32,18.70
2017,06,20,13,33,18.80
2017,06,20,13,34,18.80
2017,06,20,13,35,18.80
2017,06,20,13,36,18.80
2017,06,20,13,37,18.80
2017,06,20,13,38,18.80
2017,06,20,13,39,18.80
2017,06,20,13,40,18.80
2017,06,20,13,41,18.80
2017,06,20,13,42,18.80
2017,06,20,13,43,18.80
2017,06,20,13,44,18.80
2017,06,20,13,45,18.80
2017,06,20,13,46,18.80
2017,06,20,13,47,18.80
2017,06,20,13,48,18.80
2017,06,20,13,49,18.80
2017,06,20,13,50,18.80
2017,06,20,13,51,18.70
2017,06,20,13,52,18.70
2017,06,20,13,53,18.70
2017,06,20,13,54,18.60
2017,06,20,13,55,18.60
2017,06,20,13,56,18.60
2017,06,20,13,57,18.60
2017,06,20,13,58,18.50
2017,06,20,13,59,18.40
2017,06,20,14,00,18.40
2017,06,20,14,01,18.40
2017,06,20,14,02,18.30
2017,06,20,14,03,18.20
2017,06,20,14,04,18.20
2017,06,20,14,05,18.10
2017,06,20,14,06,18.10
2017,06,20,14,07,18.10
2017,06,20,14,08,18.20
2017,06,20,14,09,18.20
2017,06,20,14,10,18.20
2017,06,20,14,11,18.20
2017,06,20,14,12,18.30
2017,06,20,14,13,18.30
2017,06,20,14,14,18.30
2017,06,20,14,15,18.30
2017,06,20,14,16,18.30
2017,06,20,14,17,18.30
2017,06,20,14,18,18.30
2017,06,20,14,19,18.20
2017,06,20,14,20,18.20
2017,06,20,14,21,18.10
2017,06,20,14,22,18.10
2017,06,20,14,23,18.10
2017,06,20,14,24,18.10
2017,06,20,14,25,18.00
2017,06,20,14,26,18.00
2017,06,20,14,27,17.90
2017,06,20,14,28,17.90
2017,06,20,14,29,17.80
2017,06,20,14,30,17.80
2017,06,20,14,31,17.70
2017,06,20,14,32,17.70
2017,06,20,14,33,17.70
2017,06,20,14,34,17.70
2017,06,20,14,35,17.70
2017,06,20,14,36,17.80
2017,06,20,14,37,17.80
2017,06,20,14,38,17.80
2017,06,20,14,39,17.90
2017,06,20,14,40,17.90
2017,06,20,14,41,18.00
2017,06,20,14,42,18.00
2017,06,20,14,43,18.10
2017,06,20,14,44,18.00
2017,06,20,14,45,17.90
2017,06,20,14,46,17.90
2017,06,20,14,47,17.70
2017,06,20,14,48,17.70
2017,06,20,14,49,17.60
2017,06,20,14,50,17.60
2017,06,20,14,51,17.60
2017,06,20,14,52,17.60
2017,06,20,14,53,17.60
2017,06,20,14,54,17.60
2017,06,20,14,55,17.70
2017,06,20,14,56,17.70
2017,06,20,14,57,17.70
2017,06,20,14,58,17.70
2017,06,20,14,59,17.70
2017,06,20,15,00,17.60
2017,06,20,15,01,17.50
2017,06,20,15,02,17.50
2017,06,20,15,03,17.40
2017,06,20,15,04,17.40
2017,06,20,15,05,17.40
2017,06,20,15,06,17.50
2017,06,20,15,07,17.60
2017,06,20,15,08,17.60
2017,06,20,15,09,17.70
2017,06,20,15,10,17.70
2017,06,20,15,11,17.70
2017,06,20,15,12,17.80
2017,06,20,15,13,17.70
2017,06,20,15,14,17.70
2017,06,20,15,15,17.70
2017,06,20,15,16,17.70
2017,06,20,15,17,17.70
2017,06,20,15,18,17.70
2017,06,20,15,19,17.60
2017,06,20,15,20,17.60
2017,06,20,15,21,17.60
2017,06,20,15,22,17.60
2017,06,20,15,23,17.60
2017,06,20,15,24,17.50
2017,06,20,15,25,17.50
2017,06,20,15,26,17.40
2017,06,20,15,27,17.40
2017,06,20,15,28,17.40
2017,06,20,15,29,17.40
2017,06,20,15,30,17.50
2017,06,20,15,31,17.60
2017,06,20,15,32,17.50
2017,06,20,15,33,17.50
2017,06,20,15,34,17.40
2017,06,20,15,35,17.40
2017,06,20,15,36,17.40
2017,06,20,15,37,17.40
2017,06,20,15,38,17.40
2017,06,20,15,39,17.40
2017,06,20,15,40,17.40
2017,06,20,15,41,17.40
2017,06,20,15,42,17.50
2017,06,20,15,43,17.50
2017,06,20,15,44,17.60
2017,06,20,15,45,17.70
2017,06,20,15,46,17.70
2017,06,20,15,47,17.70
2017,06,20,15,48,17.70
2017,06,20,15,49,17.70
2017,06,20,15,50,17.80
2017,06,20,15,51,17.80
2017,06,20,15,52,17.80
2017,06,20,15,53,17.90
2017,06,20,15,54,17.90
2017,06,20,15,55,17.90
2017,06,20,15,56,17.90
2017,06,20,15,57,17.80
2017,06,20,15,58,17.80
2017,06,20,15,59,17.80
2017,06,20,16,00,17.80
2017,06,20,16,01,17.80
2017,06,20,16,02,17.80
2017,06,20,16,03,17.80
2017,06,20,16,04,17.90
2017,06,20,16,05,17.90
2017,06,20,16,06,18.00
2017,06,20,16,07,18.00
2017,06,20,16,08,18.00
2017,06,20,16,09,18.00
2017,06,20,16,10,18.00
2017,06,20,16,11,18.00
2017,06,20,16,12,18.10
2017,06,20,16,13,18.10
2017,06,20,16,14,18.20
2017,06,20,16,15,18.20
2017,06,20,16,16,18.10
2017,06,20,16,17,18.10
2017,06,20,16,18,18.10
2017,06,20,16,19,18.10
2017,06,20,16,20,18.00
2017,06,20,16,21,18.00
2017,06,20,16,22,18.00
2017,06,20,16,23,18.00
2017,06,20,16,24,18.00
2017,06,20,16,25,18.00
2017,06,20,16,26,18.10
2017,06,20,16,27,18.10
2017,06,20,16,28,18.10
2017,06,20,16,29,18.10
2017,06,20,16,30,18.10
2017,06,20,16,31,18.00
2017,06,20,16,32,18.00
2017,06,20,16,33,18.00
2017,06,20,16,34,18.00
2017,06,20,16,35,18.00
2017,06,20,16,36,18.00
2017,06,20,16,37,18.00
2017,06,20,16,38,18.00
2017,06,20,16,39,18.00
2017,06,20,16,40,18.00
2017,06,20,16,41,18.00
2017,06,20,16,42,18.00
2017,06,20,16,43,18.00
2017,06,20,16,44,17.90
2017,06,20,16,45,17.90
2017,06,20,16,46,17.90
2017,06,20,16,47,17.90
2017,06,20,16,48,17.80
2017,06,20,16,49,17.80
2017,06,20,16,50,17.80
2017,06,20,16,51,17.80
2017,06,20,16,52,17.80
2017,06,20,16,53,17.80
2017,06,20,16,54,17.80
2017,06,20,16,55,17.80
2017,06,20,16,56,17.80
2017,06,20,16,57,17.80
2017,06,20,16,58,17.80
2017,06,20,16,59,17.80
2017,06,20,17,00,17.80
2017,06,20,17,01,17.80
2017,06,20,17,02,17.80
2017,06,20,17,03,17.70
2017,06,20,17,04,17.70
2017,06,20,17,05,17.80
2017,06,20,17,06,17.80
2017,06,20,17,07,17.80
2017,06,20,17,08,17.80
2017,06,20,17,09,17.80
2017,06,20,17,10,17.80
2017,06,20,17,11,17.90
2017,06,20,17,12,17.90
2017,06,20,17,13,18.00
2017,06,20,17,14,18.00
2017,06,20,17,15,17.90
2017,06,20,17,16,17.90
2017,06,20,17,17,18.00
2017,06,20,17,18,18.00
2017,06,20,17,19,17.90